Location: Pella
(41.4080°N, 92.9160°W)
Time: 08:33:28
(UTC-05:00)

Daily predictions for brighter satellites

Satellite Brightness Start Highest point End
(mag) Time Altitude Azimuth Time Altitude Azimuth Time Altitude Azimuth
COSMO-SKYMED 1 2.5 19:16:40 10° NNE 19:21:02 80° ESE 19:25:23 10° S
BREEZE-M DEB (TANK) 4.4 19:19:33 10° WNW 19:22:45 50° SSW 19:32:05 10° SE
Meteor 1-28 Rocket 3.8 19:19:27 10° NNE 19:22:53 34° E 19:26:17 10° SSE
FREGAT/IRIS 3.6 19:21:00 10° SE 19:23:41 28° ENE 19:26:23 10° NNE
Abrixas 3.5 19:21:15 10° SSW 19:23:55 30° SE 19:26:38 10° ENE
Helios 1B rocket 3.7 19:21:04 10° NE 19:24:13 21° E 19:27:21 10° SE
Cosmos 2278 Rocket 4.0 19:19:48 10° NW 19:24:56 36° WSW 19:30:02 10° S
Cosmos 1072 Rocket 4.4 19:22:34 10° S 19:28:35 66° E 19:34:38 10° NNE
IDEFIX/ARIANE 42P 4.0 19:25:51 10° S 19:30:48 44° W 19:35:50 10° NNW
Cosmos 1805 3.8 19:28:15 10° SSE 19:31:49 35° E 19:35:26 10° NNE
Cosmos 1346 4.5 19:30:59 10° NNE 19:33:16 20° ENE 19:35:31 10° ESE
Aureole 2 Rocket 3.7 19:29:06 10° SSW 19:33:25 59° WNW 19:37:37 10° NNE
Cosmos 2297 4.2 19:28:03 10° NNW 19:33:40 64° WSW 19:39:12 10° S
GPS 2-04 Rocket1 4.1 19:31:26 10° SSW 19:34:01 20° SSE 19:36:40 10° ESE
Gbstr 26 Del rocket 4.4 19:32:36 10° S 19:35:58 22° SE 19:39:48 10° ENE
Cosmos 1943 Rocket 4.1 19:35:23 10° NNE 19:36:58 11° NE 19:38:32 10° ENE
Cosmos 1766 Rocket 3.6 19:34:33 10° N 19:38:52 56° E 19:43:06 10° SSE
Cosmos 1076 Rocket 3.5 19:34:35 10° N 19:38:56 70° E 19:43:15 10° SSE
Cosmos 1953 2.6 19:35:31 10° SSE 19:39:18 44° E 19:43:06 10° NNE
Cosmos 2369 Rocket 3.4 19:36:54 10° N 19:41:27 24° NE 19:45:19 13° ESE
ATLAS CENTAUR R/B 4.1 19:38:59 10° WNW 19:41:55 19° WSW 19:44:42 10° SSW
Meteor 1-29 4.1 19:39:06 10° NE 19:41:59 24° E 19:44:51 10° SSE
NOAA 12 4.1 19:36:57 10° SSE 19:42:10 70° ENE 19:47:26 10° N
Cosmos 1943 4.3 19:39:07 10° SSE 19:43:17 22° E 19:47:28 10° NE
SAR-Lupe-1 4.0 19:40:40 10° SSE 19:44:14 84° ENE 19:47:48 10° NNW
Cosmos-2242 3.2 19:43:21 10° SSE 19:47:34 50° E 19:51:50 10° NNE
Cosmos 1603 3.8 19:43:37 10° S 19:49:13 58° ESE 19:54:52 10° NNE
NOSS 3-2 (A) 4.0 19:43:42 10° SW 19:49:43 63° NW 19:56:21 10° NNE
OAO 3 Rocket 4.1 19:49:26 10° WSW 19:53:49 37° S 19:57:20 15° ESE
Cosmos 1733 4.5 19:51:34 10° SE 19:54:28 20° E 19:57:22 10° NE
Cosmos 1452 Rocket 3.5 19:50:34 10° NNW 19:55:51 87° WSW 20:01:05 10° SSE
Cosmos 1470 3.7 19:53:07 10° SSE 19:56:22 26° E 19:59:37 10° NNE
In-Cosmos 22 4.3 19:57:00 10° N 20:02:48 85° W 20:08:31 10° S
Spot 1 4.1 19:58:17 10° SSE 20:02:59 82° ENE 20:07:26 10° NNW
Cosmos 2034 Rocket 4.0 19:57:22 10° S 20:03:38 84° E 20:10:00 10° N
Cosmos 1674 3.3 20:00:21 10° N 20:03:58 35° ENE 20:06:20 18° SE
Cosmos 1464 Rocket 4.3 19:57:54 10° SSW 20:04:07 73° W 20:10:19 10° N
ASTEX 1 3.9 19:59:55 10° NNE 20:04:26 36° E 20:08:55 10° SSE
SJ-6B 3.7 20:04:23 10° S 20:08:17 53° W 20:12:17 10° NNW
Cosmos 1408 Rocket 4.2 20:06:20 10° NNW 20:10:37 58° W 20:14:51 10° S
Cosmos 1500 Rocket 3.9 20:07:11 10° N 20:11:27 44° ENE 20:14:48 16° SSE
Cosmos 1842 Rocket 3.8 20:07:47 10° SSE 20:11:52 44° E 20:16:01 10° NNE
Cosmos 1420 Rocket 3.9 20:10:39 10° NNW 20:15:59 80° ENE 20:21:18 10° SSE
CENTAUR R/B 2.6 20:12:22 10° S 20:18:04 48° ESE 20:24:29 10° NE
ATLAS 5 CENTAUR R/B 2.9 20:15:12 10° WSW 20:19:49 46° NW 20:24:52 10° NNE
FengYun 1-2 T 4.1 20:16:41 10° SSE 20:22:11 82° ENE 20:27:41 10° NNW
Cosmos 1758 4.3 20:19:13 10° SSW 20:23:11 51° W 20:27:13 10° N
ALOS 2.2 20:20:32 13° SSE 20:24:35 64° ENE 20:29:13 10° N
ISS -3.5 20:23:33 10° SW 20:26:48 84° SE 20:27:24 56° ENE
Helios 1A 3.2 20:22:44 10° S 20:26:56 73° WSW 20:31:09 10° NNW
Spot 2 Rocket 3.9 20:25:44 10° S 20:30:42 63° WSW 20:35:44 10° NNW
Cosmos 1544 3.7 20:27:45 10° SSW 20:31:26 58° W 20:35:09 10° N
Cosmos 1048 Rocket 4.0 20:29:39 10° SSW 20:34:57 86° WNW 20:40:14 10° NNE
Resurs 1-3 4.0 20:32:56 10° S 20:37:17 65° WSW 20:41:40 10° NNW
Cosmos 1269 Rocket 4.3 20:32:52 10° SSW 20:38:07 69° WNW 20:43:24 10° NNE
SL-8 R/B 3.7 20:35:38 10° WSW 20:40:25 78° NNW 20:42:21 36° NE
Cosmos 1743 Rocket 4.1 20:36:18 10° NNW 20:40:41 59° W 20:44:59 10° S
Envisat 4.2 20:42:35 25° NE 20:42:35 25° NE 20:45:56 10° N
Resurs 01 Rocket 2.8 20:38:56 10° S 20:43:09 43° W 20:47:25 10° NNW
Cosmos 1174 3.8 20:42:55 10° SSW 20:47:43 79° ESE 20:48:25 60° NE
Cosmos 1328 4.1 20:44:35 10° N 20:47:48 49° NNE 20:47:48 49° NNE
CZ-2D R/B 3.3 20:50:59 55° S 20:51:45 78° W 20:55:39 10° NNW
Cosmos 158 Rocket 3.7 20:48:19 10° SSW 20:53:12 84° ESE 20:58:07 10° NNE
FENGYUN 3A 3.9 20:51:25 12° S 20:56:24 68° WSW 21:01:48 10° NNW
USA 215 3.3 20:53:08 12° NE 20:59:23 79° NW 21:05:54 10° SW
Helios 1B rocket 4.3 20:55:56 10° N 20:59:34 31° WNW 21:03:11 10° SW
Abrixas 4.4 20:56:52 10° W 20:58:49 30° WNW 20:58:49 30° WNW
H-2A R/B 3.4 21:03:24 49° SW 21:03:56 55° W 21:07:46 10° NNW
CZ-4B DEB 4.4 21:05:06 33° WSW 21:05:14 33° W 21:08:15 10° NNW
GP-B 3.1 21:03:19 10° N 21:07:46 77° W 21:08:05 72° SW
Cosmos 2279 Rocket 3.9 21:09:41 61° ESE 21:09:58 62° E 21:16:05 10° NNE
ERS-1 Rocket 3.5 21:15:36 46° NNE 21:15:36 46° NNE 21:19:21 10° N
H-2A R/B 4.5 21:23:11 14° NNE 21:23:11 14° NNE 21:23:59 10° N
Cosmos 1943 Rocket 2.4 21:16:20 10° NNW 21:21:09 56° NNE 21:21:09 56° NNE
Gbstr 26 Del rocket 3.5 21:17:45 10° WSW 21:22:22 70° NNW 21:22:26 70° NNW
Cosmos 1655 Rocket 3.9 21:18:18 10° N 21:24:33 89° W 21:25:31 66° S
Cosmos 2369 Rocket 2.8 21:20:18 10° NNW 21:25:48 54° WSW 21:27:10 43° SSW
Cosmos 2058 4.5 21:22:02 10° N 21:24:08 29° NNW 21:24:08 29° NNW
Cosmos 1110 Rocket 4.1 21:21:24 10° NNW 21:26:25 76° WNW 21:26:25 76° WNW
Cosmos 1943 3.9 21:21:25 10° SW 21:26:54 52° WNW 21:32:24 10° NNE
Cosmos 2151 4.1 21:25:19 10° NNW 21:28:44 41° WNW 21:28:44 41° WNW
Cosmos 2026 Rocket 4.0 21:24:00 10° NNW 21:30:06 73° W 21:31:32 53° SSW
Cosmos 1428 Rocket 4.4 21:26:30 10° N 21:32:20 74° NE 21:32:20 74° NE
Cosmos 2263 4.5 21:29:45 10° NNW 21:35:28 63° WSW 21:35:41 63° WSW
BREEZE-M DEB (TANK) 4.0 21:51:05 10° WNW 21:57:17 46° WNW 21:57:17 46° WNW
CENTAUR R/B 3.9 22:03:13 10° WSW 22:08:55 36° NW 22:15:18 10° NNE
